Location: Middle Street
(51.7167°N, 0.0333°E)
Time: 00:33:33
(UTC+00:00)

CZ-2C R/B - Pass Details

Date: 20 January 2021
Orbit: 704 x 908 km, 98.1° (Epoch: 28 February)

Event Time Altitude Azimuth Distance (km) Brightness Sun altitude
Rises 18:08:36 0° 163° (SSE) 3,286 6.2 -15.2°
Reaches altitude 10° 18:10:51 10° 164° (SSE) 2,390 5.5 -15.5°
Maximum altitude 18:16:11 90° 246° (WSW) 850 3.2 -16.3°
Drops below altitude 10° 18:21:52 10° 346° (NNW) 2,535 5.7 -17.2°
Sets 18:24:19 0° 346° (NNW) 3,500 6.5 -17.5°
